Location: Nasgenstadt
(48.2786°N, 9.7553°E)
Time: 07:23:50
(UTC+02:00)

ISS - Visible Passes

Search period start: 29 March 2017 00:00
Search period end: 08 April 2017 00:00
Orbit: 399 x 409 km, 51.6° (Epoch: 29 March)

Date Brightness Start Highest point End Pass type
(mag) Time Alt. Az. Time Alt. Az. Time Alt. Az.
29 Mar -3.9 21:41:56 10° WSW 21:45:05 78° S 21:45:05 78° S visible
30 Mar -3.6 20:49:41 10° SW 20:52:52 51° SSE 20:55:19 16° ENE visible
30 Mar -1.9 22:26:09 10° W 22:28:00 29° WNW 22:28:00 29° WNW visible
31 Mar -3.5 21:33:39 10° W 21:36:55 65° NNW 21:38:02 36° NE visible
31 Mar -0.5 23:10:31 10° WNW 23:10:43 11° WNW 23:10:43 11° WNW visible
01 Apr -3.9 20:41:12 10° WSW 20:44:28 90° WNW 20:47:46 10° ENE visible
01 Apr -2.5 22:17:59 10° WNW 22:20:37 40° NNW 22:20:37 40° NNW visible
02 Apr -3.0 21:25:27 10° W 21:28:38 48° N 21:30:24 23° ENE visible
02 Apr -0.9 23:02:13 10° WNW 23:03:03 16° WNW 23:03:03 16° WNW visible
03 Apr -3.3 20:32:54 10° W 20:36:08 59° NNW 20:39:22 10° ENE visible
03 Apr -2.9 22:09:44 10° WNW 22:12:46 45° N 22:12:46 45° N visible
04 Apr -2.9 21:17:12 10° WNW 21:20:21 44° N 21:22:25 19° ENE visible
04 Apr -1.3 22:53:48 10° WNW 22:55:04 21° WNW 22:55:04 21° WNW visible
05 Apr -3.0 20:24:37 10° W 20:27:47 46° N 20:30:58 10° ENE visible
05 Apr -3.5 22:01:20 10° WNW 22:04:35 56° NNE 22:04:40 56° NNE visible
06 Apr -3.1 21:08:50 10° WNW 21:12:01 47° N 21:14:15 17° ENE visible
06 Apr -1.7 22:45:21 10° WNW 22:46:54 25° WNW 22:46:54 25° WNW visible
07 Apr -4.0 21:52:51 10° WNW 21:56:08 82° NNE 21:56:28 69° E visible
